Location: Mountain_View
(35.6670°N, 81.4000°W)
Time: 14:54:10
(UTC-05:00)

Amateur Radio Satellites - All Passes

Search period start: 01 March 2017 14:24
Search period end: 02 March 2017 14:24
Location: Mountain_View, 35.6670°N, 81.4000°W

Satellite Date Start Highest point End Downlink Frequencies (MHz)
Time Altitude Azimuth
ITUPSAT 1 01 Mar 14:26:54 14:30:37 22° 95° (E) 14:34:19 437.325
AO-7 01 Mar 14:29:22 14:37:20 51° 66° (ENE) 14:45:18 .
BEESAT 01 Mar 14:30:10 14:34:04 25° 96° (E) 14:37:58 436.000
Oscar 19 01 Mar 14:40:17 14:42:08 12° 269° (W) 14:43:59 437.125/150
BEESAT 3 01 Mar 14:48:51 14:52:49 62° 244° (WSW) 14:56:44 437.485
NO-84 01 Mar 14:51:48 14:54:28 30° 126° (SE) 14:57:18 435.350 FM
ITAMSAT 1 01 Mar 15:20:25 15:25:29 53° 259° (W) 15:30:36 435.822/435.867
PCSat 01 Mar 15:33:30 15:38:53 75° 297° (WNW) 15:44:19 145.827
RS-15 01 Mar 15:37:13 15:47:31 37° 105° (ESE) 15:58:08 29.354- 29.394
BEESAT 2 01 Mar 15:37:37 15:41:28 44° 245° (WSW) 15:45:18 435.950
KKS-1 01 Mar 15:45:14 15:47:02 12° 92° (E) 15:48:51 437.445
MOZHAYETS 4 01 Mar 15:46:20 15:50:54 61° 101° (E) 15:55:24
ITUPSAT 1 01 Mar 16:04:12 16:08:27 32° 290° (WNW) 16:12:40 437.325
BEESAT 01 Mar 16:07:41 16:11:47 29° 291° (WNW) 16:15:52 436.000
AO-7 01 Mar 16:22:59 16:30:13 32° 262° (W) 16:37:31 .
NO-84 01 Mar 16:29:50 16:32:09 19° 325° (NW) 16:34:36 435.350 FM
DOVE 4 01 Mar 16:43:11 16:45:07 13° 66° (ENE) 16:47:03 437.250
CUBESAT XI-V 01 Mar 16:58:24 17:02:55 55° 100° (E) 17:07:24 437.345
KAITUO 1B 01 Mar 17:02:28 17:04:34 14° 68° (ENE) 17:06:41 145.475/437.950
CUTE-I 01 Mar 17:03:27 17:07:44 25° 67° (ENE) 17:12:02 437.470
XW-2F 01 Mar 17:14:07 17:17:15 24° 71° (ENE) 17:20:23 145.980 - 146.000
KKS-1 01 Mar 17:19:30 17:23:51 51° 286° (WNW) 17:28:11 437.445
XW-2D 01 Mar 17:21:24 17:24:51 32° 73° (ENE) 17:28:18 145.860 - 145.880
PCSat 01 Mar 17:21:52 17:23:12 11° 316° (NW) 17:24:32 145.827
MOZHAYETS 4 01 Mar 17:25:52 17:27:28 12° 296° (WNW) 17:29:04
XW-2B 01 Mar 17:26:28 17:30:00 35° 73° (ENE) 17:33:33 145.730 - 145.750
NUDT-PHONESAT 01 Mar 17:30:04 17:33:25 31° 73° (ENE) 17:36:47 437.300
XW-2C 01 Mar 17:35:08 17:38:50 47° 75° (ENE) 17:42:34 145.795 - 145.815
STARS 01 Mar 17:39:59 17:44:25 71° 284° (WNW) 17:48:49 437.465
RS-15 01 Mar 17:47:31 17:59:17 62° 305° (NW) 18:11:33 29.354- 29.394
HO-68 01 Mar 17:48:32 17:53:29 21° 60° (ENE) 17:58:27 435.675
LilacSat-2 01 Mar 17:57:00 18:00:53 81° 261° (W) 18:04:46 437.200
M-CUBED/EXP-1 PRIME 01 Mar 18:05:32 18:09:33 86° 106° (ESE) 18:13:52 437.505
DOVE 4 01 Mar 18:18:29 18:22:24 42° 261° (W) 18:26:23 437.250
CUTE 1.7 + AOD 2 01 Mar 18:30:45 18:34:06 23° 70° (ENE) 18:37:28 437.475
JUGNU 01 Mar 18:34:35 18:35:41 11° 166° (SSE) 18:36:48 437.505
KAITUO 1B 01 Mar 18:34:51 18:38:17 32° 263° (W) 18:41:44 145.475/437.950
CUBESAT XI-V 01 Mar 18:37:44 18:39:47 13° 295° (WNW) 18:41:49 437.345
CUTE-I 01 Mar 18:42:40 18:47:32 36° 262° (W) 18:52:27 437.470
XW-2F 01 Mar 18:48:35 18:51:19 19° 265° (W) 18:54:06 145.980 - 146.000
AAUSAT CUBESAT 2 01 Mar 18:55:02 18:56:57 13° 67° (ENE) 18:58:52 437.432
XW-2D 01 Mar 18:56:59 18:59:06 14° 267° (W) 19:01:14 145.860 - 145.880
XW-2A 01 Mar 18:59:38 19:03:02 82° 79° (ENE) 19:06:28 145.665 - 145.685
XW-2B 01 Mar 19:02:34 19:04:18 13° 267° (W) 19:06:04 145.730 - 145.750
NUDT-PHONESAT 01 Mar 19:05:26 19:07:24 14° 267° (W) 19:09:24 437.300
SEEDS 01 Mar 19:17:50 19:21:57 53° 75° (ENE) 19:26:04 437.485
STRAND 1 01 Mar 19:19:58 19:24:48 40° 99° (E) 19:29:35 437.568
AO-73 01 Mar 19:26:56 19:29:27 15° 66° (ENE) 19:31:58 145.935
Oscar 11 01 Mar 19:28:13 19:30:02 12° 66° (ENE) 19:31:51 .
HO-68 01 Mar 19:33:20 19:40:29 71° 256° (WSW) 19:47:39 435.675
YUBILEINY 01 Mar 19:35:56 19:39:38 13° 63° (ENE) 19:43:19 435.215
CUBEBUG 2 01 Mar 19:38:26 19:42:50 62° 75° (ENE) 19:47:25 437.445
SO-50 01 Mar 19:59:43 20:02:30 16° 109° (ESE) 20:05:17 436.795
UWE-3 01 Mar 20:05:21 20:09:50 77° 75° (ENE) 20:14:26 435.000/436.395/437.385
CUTE 1.7 + AOD 2 01 Mar 20:06:14 20:09:47 25° 264° (W) 20:13:20 437.475
RS-15 01 Mar 20:06:32 20:15:06 21° 333° (NNW) 20:23:49 29.354- 29.394
ZACube-1 01 Mar 20:15:16 20:19:39 56° 75° (ENE) 20:24:08 437.345
JUGNU 01 Mar 20:20:28 20:23:54 16° 176° (S) 20:27:19 437.505
AAUSAT CUBESAT 2 01 Mar 20:28:02 20:32:00 44° 261° (W) 20:35:58 437.432
PRISM 01 Mar 20:49:11 20:50:09 11° 92° (E) 20:51:09 437.425
SEEDS 01 Mar 20:57:12 20:57:54 10° 269° (W) 20:58:36 437.485
STRAND 1 01 Mar 20:59:49 21:03:40 22° 293° (WNW) 21:07:29 437.568
AO-73 01 Mar 21:00:55 21:05:13 46° 261° (W) 21:09:37 145.935
Oscar 11 01 Mar 21:01:26 21:05:40 51° 260° (W) 21:09:56 .
DELFI C3 01 Mar 21:16:28 21:20:24 68° 76° (ENE) 21:24:19 145.870
CUBEBUG 2 01 Mar 21:19:16 21:19:51 10° 270° (W) 21:20:27 437.445
NO-84 01 Mar 21:28:36 21:30:13 12° 30° (NNE) 21:31:51 435.350 FM
YUBILEINY 01 Mar 21:29:07 21:37:53 79° 83° (E) 21:46:34 435.215
SRMSAT 01 Mar 21:30:16 21:32:36 12° 168° (SSE) 21:34:57 437.500
SO-50 01 Mar 21:38:01 21:42:33 49° 303° (WNW) 21:47:04 436.795
FO-29 01 Mar 21:51:24 21:56:12 19° 89° (E) 22:00:41 435.910
ZACube-1 01 Mar 21:54:52 21:56:15 11° 269° (W) 21:57:39 437.345
LO-87 01 Mar 22:03:49 22:06:43 24° 72° (ENE) 22:09:36 145.935 - 145.965
JUGNU 01 Mar 22:08:54 22:12:07 15° 186° (S) 22:15:21 437.505
O/OREOS (USA 219) 01 Mar 22:09:33 22:13:59 68° 291° (WNW) 22:18:29 437.305
ESTCUBE 1 01 Mar 22:11:19 22:14:26 19° 68° (ENE) 22:17:33 437.505/2401.250
PRISM 01 Mar 22:21:44 22:25:40 48° 286° (WNW) 22:29:36 437.425
TIGRISAT 01 Mar 22:26:32 22:31:12 66° 100° (E) 22:35:45 435.000
UNISAT 6 01 Mar 22:27:48 22:32:29 74° 101° (E) 22:37:04 437.425
RS-15 01 Mar 22:28:06 22:34:48 16° 11° (N) 22:41:26 29.354- 29.394
AIST 2D 01 Mar 22:51:12 22:52:56 13° 93° (E) 22:54:40 435.315
NO-84 01 Mar 23:04:24 23:08:28 68° 45° (NE) 23:12:47 435.350 FM
SRMSAT 01 Mar 23:17:19 23:20:59 17° 178° (S) 23:24:41 437.500
SPROUT 01 Mar 23:20:17 23:23:48 26° 70° (ENE) 23:27:22 437.525
DX 1 01 Mar 23:26:09 23:28:52 17° 67° (ENE) 23:31:36 434.975-435.025
YUBILEINY 01 Mar 23:28:13 23:33:34 18° 280° (W) 23:38:54 435.215
UKube-1 01 Mar 23:29:01 23:30:46 12° 65° (ENE) 23:32:31 .
FO-29 01 Mar 23:34:34 23:41:54 68° 287° (WNW) 23:48:25 435.910
LO-87 01 Mar 23:37:59 23:40:08 15° 266° (W) 23:42:18 145.935 - 145.965
50 SAT 01 Mar 23:43:23 23:46:37 36° 74° (ENE) 23:49:50 437.505
DUCHIFAT 1 01 Mar 23:44:05 23:47:55 32° 97° (E) 23:51:42 145.980
ESTCUBE 1 01 Mar 23:46:50 23:50:57 35° 262° (W) 23:55:06 437.505/2401.250
VELOX 1 01 Mar 23:49:35 23:53:57 75° 75° (ENE) 23:58:20 145.980
EO-79 02 Mar 00:00:36 00:04:52 63° 101° (E) 00:09:05 145.935-145.965
TIGRISAT 02 Mar 00:05:46 00:07:14 11° 296° (WNW) 00:08:42 435.000
UNISAT 6 02 Mar 00:08:05 00:08:29 10° 297° (WNW) 00:08:54 437.425
NANOSAT C BR1 02 Mar 00:14:18 00:18:35 85° 100° (E) 00:22:50 145.865
POLYITAN 1 02 Mar 00:19:45 00:24:03 75° 285° (WNW) 00:28:19 437.675
BUGSAT 1 02 Mar 00:20:27 00:24:06 27° 97° (E) 00:27:45 437.445
QB50P2 02 Mar 00:23:00 00:27:15 63° 285° (WNW) 00:31:28 145.880/145.840
AIST 2D 02 Mar 00:23:08 00:26:12 28° 287° (WNW) 00:29:15 435.315
PCSat 02 Mar 00:24:22 00:29:36 46° 59° (ENE) 00:34:47 145.827
RS-15 02 Mar 00:41:25 00:52:36 38° 44° (NE) 01:03:20 29.354- 29.394
NO-84 02 Mar 00:43:42 00:45:49 13° 238° (WSW) 00:47:58 435.350 FM
SPROUT 02 Mar 00:56:20 00:59:39 22° 265° (W) 01:02:59 437.525
DX 1 02 Mar 01:00:44 01:04:43 37° 261° (W) 01:08:45 434.975-435.025
Gurwin Techsat 1B 02 Mar 01:01:25 01:03:09 11° 91° (E) 01:04:53 435.225
UKube-1 02 Mar 01:02:09 01:06:19 51° 260° (W) 01:10:31 .
SRMSAT 02 Mar 01:06:15 01:09:24 15° 188° (S) 01:12:35 437.500
Oscar 19 02 Mar 01:12:14 01:16:41 29° 97° (E) 01:21:06 437.125/150
DUCHIFAT 1 02 Mar 01:20:22 01:23:19 18° 292° (WNW) 01:26:15 145.980
FO-29 02 Mar 01:23:26 01:25:19 11° 306° (NW) 01:27:11 435.910
ITUPSAT 1 02 Mar 01:31:09 01:34:35 20° 67° (ENE) 01:38:02 437.325
BEESAT 02 Mar 01:34:01 01:37:37 22° 67° (ENE) 01:41:13 436.000
BUGSAT 1 02 Mar 01:56:03 01:59:16 21° 291° (WNW) 02:02:28 437.445
PCSat 02 Mar 02:08:41 02:12:36 20° 254° (WSW) 02:16:30 145.827
AO-7 02 Mar 02:36:04 02:41:17 18° 93° (E) 02:46:26 .
Gurwin Techsat 1B 02 Mar 02:38:15 02:43:33 72° 285° (WNW) 02:48:50 435.225
MOZHAYETS 4 02 Mar 02:45:05 02:49:25 41° 73° (ENE) 02:53:47
Oscar 19 02 Mar 02:51:33 02:55:53 28° 291° (WNW) 03:00:12 437.125/150
RS-15 02 Mar 02:53:51 03:05:55 68° 247° (WSW) 03:17:24 29.354- 29.394
ITUPSAT 1 02 Mar 03:07:38 03:12:06 38° 262° (W) 03:16:36 437.325
BEESAT 02 Mar 03:10:48 03:15:08 34° 262° (W) 03:19:31 436.000
AO-85 02 Mar 03:20:21 03:24:58 71° 300° (WNW) 03:29:14 145.980
ITAMSAT 1 02 Mar 03:36:02 03:41:16 70° 102° (ESE) 03:46:27 435.822/435.867
CUBESAT XI-V 02 Mar 03:58:41 04:02:58 38° 72° (ENE) 04:07:15 437.345
KKS-1 02 Mar 04:14:08 04:18:33 82° 257° (WSW) 04:23:00 437.445
MOZHAYETS 4 02 Mar 04:23:46 04:26:43 17° 267° (W) 04:29:39
AO-7 02 Mar 04:26:26 04:34:46 82° 288° (WNW) 04:43:02 .
STARS 02 Mar 04:33:17 04:37:36 69° 76° (ENE) 04:41:59 437.465
BEESAT 3 02 Mar 04:35:53 04:39:32 41° 115° (ESE) 04:43:16 437.485
M-CUBED/EXP-1 PRIME 02 Mar 04:49:43 04:52:55 59° 72° (ENE) 04:56:09 437.505
ISS 02 Mar 05:11:23 05:14:05 24° 131° (SE) 05:16:48 437.550
RS-15 02 Mar 05:12:39 05:15:51 11° 266° (W) 05:19:01 29.354- 29.394
ITAMSAT 1 02 Mar 05:17:42 05:20:05 13° 298° (WNW) 05:22:27 435.822/435.867
Tancredo 1 02 Mar 05:22:48 05:25:45 34° 133° (SE) 05:28:45 437.200
CUTE-I 02 Mar 05:25:06 05:26:58 12° 91° (E) 05:28:50 437.470
BEESAT 2 02 Mar 05:25:48 05:29:40 62° 116° (ESE) 05:33:36 435.950
LilacSat-2 02 Mar 05:34:51 05:36:40 13° 93° (E) 05:38:26 437.200
CUBESAT XI-V 02 Mar 05:37:20 05:40:26 18° 266° (W) 05:43:33 437.345
KAITUO 1B 02 Mar 06:09:01 06:12:15 27° 96° (E) 06:15:27 145.475/437.950
SO-50 02 Mar 06:11:57 06:16:25 64° 59° (ENE) 06:20:51 436.795
BEESAT 3 02 Mar 06:14:58 06:17:20 15° 311° (NW) 06:19:44 437.485
DOVE 4 02 Mar 06:18:43 06:23:36 60° 100° (E) 06:28:42 437.250
AO-7 02 Mar 06:21:37 06:26:16 16° 307° (NW) 06:30:54 .
XW-2F 02 Mar 06:22:30 06:26:12 51° 99° (E) 06:29:52 145.980 - 146.000
XW-2D 02 Mar 06:30:28 06:34:16 73° 101° (E) 06:38:02 145.860 - 145.880
STRAND 1 02 Mar 06:32:51 06:37:40 42° 71° (ENE) 06:42:30 437.568
XW-2B 02 Mar 06:35:39 06:39:28 83° 105° (ESE) 06:43:14 145.730 - 145.750
NUDT-PHONESAT 02 Mar 06:36:52 06:40:37 68° 101° (E) 06:44:18 437.300
XW-2C 02 Mar 06:44:33 06:48:21 73° 284° (WNW) 06:52:06 145.795 - 145.815
O/OREOS (USA 219) 02 Mar 06:45:02 06:47:09 13° 57° (ENE) 06:49:15 437.305
ISS 02 Mar 06:47:33 06:50:29 28° 325° (NW) 06:53:25 437.550
Tancredo 1 02 Mar 06:59:28 07:02:03 22° 328° (NNW) 07:04:40 437.200
CUTE-I 02 Mar 07:02:06 07:07:28 72° 285° (WNW) 07:12:49 437.470
HO-68 02 Mar 07:05:03 07:10:55 27° 96° (E) 07:16:43 435.675
BEESAT 2 02 Mar 07:06:24 07:07:50 12° 314° (NW) 07:09:17 435.950
SEEDS 02 Mar 07:07:15 07:08:04 10° 91° (E) 07:08:54 437.485
LilacSat-2 02 Mar 07:07:34 07:11:02 34° 287° (WNW) 07:14:28 437.200
CUBEBUG 2 02 Mar 07:33:18 07:36:27 18° 93° (E) 07:39:32 437.445
KAITUO 1B 02 Mar 07:43:42 07:46:02 16° 291° (WNW) 07:48:20 145.475/437.950
CUTE 1.7 + AOD 2 02 Mar 07:53:05 07:57:17 66° 101° (ESE) 08:01:26 437.475
SO-50 02 Mar 07:55:16 07:56:16 11° 253° (WSW) 07:57:16 436.795
XW-2A 02 Mar 07:57:05 08:00:30 58° 284° (WNW) 08:03:53 145.665 - 145.685
DOVE 4 02 Mar 07:58:17 08:00:48 14° 294° (WNW) 08:03:24 437.250
UWE-3 02 Mar 07:58:52 08:02:16 20° 94° (E) 08:05:36 435.000/436.395/437.385
ZACube-1 02 Mar 08:08:15 08:10:36 14° 92° (E) 08:12:54 437.345
AAUSAT CUBESAT 2 02 Mar 08:13:01 08:16:43 32° 97° (E) 08:20:25 437.432
STRAND 1 02 Mar 08:13:20 08:16:58 19° 266° (W) 08:20:39 437.568
O/OREOS (USA 219) 02 Mar 08:22:24 08:26:55 58° 253° (WSW) 08:31:25 437.305
YUBILEINY 02 Mar 08:33:51 08:38:56 17° 79° (E) 08:44:00 435.215
SEEDS 02 Mar 08:39:59 08:44:01 50° 285° (WNW) 08:48:01 437.485
Oscar 11 02 Mar 08:51:38 08:55:34 34° 98° (E) 08:59:28 .
AO-73 02 Mar 08:51:51 08:56:06 41° 98° (E) 09:00:13 145.935
HO-68 02 Mar 08:51:58 08:58:49 51° 291° (WNW) 09:05:39 435.675
DELFI C3 02 Mar 08:59:27 08:59:53 10° 92° (E) 09:00:19 145.870
PRISM 02 Mar 09:07:36 09:11:39 76° 76° (ENE) 09:15:43 437.425
CUBEBUG 2 02 Mar 09:08:45 09:13:11 40° 287° (WNW) 09:17:29 437.445
TIGRISAT 02 Mar 09:22:00 09:26:13 39° 72° (ENE) 09:30:32 435.000
UNISAT 6 02 Mar 09:23:21 09:27:39 44° 73° (ENE) 09:32:03 437.425
UWE-3 02 Mar 09:34:36 09:38:44 33° 289° (WNW) 09:42:47 435.000/436.395/437.385
FO-29 02 Mar 09:41:27 09:48:16 44° 68° (ENE) 09:55:33 435.910
ZACube-1 02 Mar 09:42:47 09:47:05 44° 287° (WNW) 09:51:16 437.345
AAUSAT CUBESAT 2 02 Mar 09:49:17 09:51:54 17° 292° (WNW) 09:54:31 437.432
YUBILEINY 02 Mar 10:25:42 10:34:32 84° 276° (W) 10:43:22 435.215
Oscar 11 02 Mar 10:28:32 10:31:24 18° 292° (WNW) 10:34:16 .
AO-73 02 Mar 10:29:13 10:31:56 16° 293° (WNW) 10:34:36 145.935
DELFI C3 02 Mar 10:31:08 10:34:54 45° 286° (WNW) 10:38:39 145.870
DUCHIFAT 1 02 Mar 10:33:52 10:36:34 17° 68° (ENE) 10:39:16 145.980
EO-79 02 Mar 10:50:10 10:53:53 31° 71° (ENE) 10:57:38 145.935-145.965
AIST 2D 02 Mar 10:53:56 10:57:25 57° 76° (ENE) 11:00:56 435.315
TIGRISAT 02 Mar 11:00:05 11:03:01 17° 267° (W) 11:06:01 435.000
UNISAT 6 02 Mar 11:01:56 11:04:33 15° 268° (W) 11:07:11 437.425
NANOSAT C BR1 02 Mar 11:03:16 11:07:13 40° 73° (ENE) 11:11:11 145.865
LO-87 02 Mar 11:06:16 11:09:45 45° 99° (E) 11:13:15 145.935 - 145.965
BUGSAT 1 02 Mar 11:08:45 11:10:44 13° 66° (ENE) 11:12:42 437.445
POLYITAN 1 02 Mar 11:09:01 11:13:08 53° 75° (ENE) 11:17:18 437.675
QB50P2 02 Mar 11:12:11 11:16:22 63° 75° (ENE) 11:20:35 145.880/145.840
FO-29 02 Mar 11:26:48 11:33:15 35° 266° (W) 11:40:13 435.910
ESTCUBE 1 02 Mar 11:41:39 11:46:05 58° 101° (E) 11:50:29 437.505/2401.250
ISS 02 Mar 11:42:02 11:43:41 13° 25° (NNE) 11:45:20 437.550
VELOX 1 02 Mar 11:43:28 11:46:27 18° 94° (E) 11:49:26 145.980
Tancredo 1 02 Mar 11:52:35 11:54:36 15° 28° (NNE) 11:56:37 437.200
AO-85 02 Mar 11:54:32 11:58:11 36° 56° (NE) 12:01:54 145.980
DUCHIFAT 1 02 Mar 12:08:05 12:11:56 35° 262° (W) 12:15:49 145.980
Gurwin Techsat 1B 02 Mar 12:19:12 12:22:14 16° 64° (ENE) 12:25:16 435.225
Oscar 19 02 Mar 12:26:14 12:30:46 32° 70° (ENE) 12:35:18 437.125/150
EO-79 02 Mar 12:26:44 12:29:39 18° 266° (W) 12:32:37 145.935-145.965
YUBILEINY 02 Mar 12:28:13 12:32:39 15° 296° (WNW) 12:37:05 435.215
NANOSAT C BR1 02 Mar 12:40:55 12:43:04 14° 267° (W) 12:45:15 145.865
BUGSAT 1 02 Mar 12:41:48 12:45:39 42° 261° (W) 12:49:35 437.445
50 SAT 02 Mar 12:43:32 12:46:59 63° 101° (E) 12:50:25 437.505
SPROUT 02 Mar 12:43:41 12:48:01 76° 102° (ESE) 12:52:18 437.525
POLYITAN 1 02 Mar 12:48:21 12:49:12 10° 269° (W) 12:50:03 437.675
DX 1 02 Mar 12:51:20 12:55:31 44° 99° (E) 12:59:41 434.975-435.025
UKube-1 02 Mar 12:52:08 12:55:58 30° 98° (E) 12:59:47 .
BEESAT 3 02 Mar 12:56:55 12:58:30 12° 47° (NE) 13:00:02 437.485
ISS 02 Mar 13:17:16 13:20:35 89° 212° (SSW) 13:23:51 437.550
VELOX 1 02 Mar 13:18:57 13:22:58 35° 288° (WNW) 13:27:00 145.980
ESTCUBE 1 02 Mar 13:20:45 13:22:20 12° 295° (WNW) 13:23:56 437.505/2401.250
Tancredo 1 02 Mar 13:27:56 13:31:08 61° 224° (SW) 13:34:17 437.200
AO-7 02 Mar 13:32:17 13:38:12 22° 56° (NE) 13:44:07 .
AO-85 02 Mar 13:36:02 13:38:15 15° 250° (WSW) 13:40:28 145.980
BEESAT 2 02 Mar 13:47:05 13:49:42 16° 49° (NE) 13:52:19 435.950
Gurwin Techsat 1B 02 Mar 13:56:23 14:01:37 60° 259° (W) 14:06:53 435.225
Oscar 19 02 Mar 14:05:50 14:10:03 25° 264° (W) 14:14:17 437.125/150
